FW7746 Weather Reports


time (UTC)temp
C
wind
direction
speed
KPH
gust
KPH
rain 1hr
cm
rain 24hr
cm
rain mn
cm
humidity
%
barometer
mb
20260502230604 18 150 1.6 12.9 0.00 0.03 0.00 41 1011.8
20260502225604 20 131 1.6 4.8 0.00 0.03 0.00 35 1011.5
20260502224604 20 334 0.0 0.0 0.00 0.03 0.00 36 1010.7
20260502223604 20 329 0.0 4.8 0.00 0.03 0.00 36 1010.3
20260502223104 21 319 1.6 4.8 0.00 0.03 0.00 35 1010.1
20260502222604 21 311 3.2 14.5 0.00 0.03 0.00 35 1009.9
20260502222104 21 333 4.8 9.7 0.00 0.03 0.00 35 1009.9
20260502221604 21 334 1.6 8.0 0.00 0.03 0.00 35 1009.9
20260502221104 21 321 1.6 8.0 0.00 0.03 0.00 35 1010.1
20260502220604 21 320 1.6 12.9 0.00 0.03 0.00 35 1010.0
20260502220105 21 323 1.6 4.8 0.00 0.03 0.00 34 1010.1
20260502215105 21 321 1.6 8.0 0.00 0.03 0.00 33 1010.1
20260502214604 21 324 1.6 8.0 0.00 0.03 0.00 34 1010.2
20260502214104 21 324 3.2 8.0 0.00 0.03 0.00 33 1010.2
20260502213604 21 330 3.2 12.9 0.00 0.03 0.00 33 1010.2
20260502213104 21 287 1.6 4.8 0.00 0.03 0.00 34 1010.2
20260502211604 21 245 1.6 4.8 0.00 0.03 0.00 35 1010.4
20260502211104 21 317 3.2 9.7 0.00 0.03 0.00 34 1010.4
20260502210604 21 335 1.6 4.8 0.00 0.03 0.00 35 1010.3
20260502210104 20 330 1.6 14.5 0.00 0.03 0.00 34 1010.4
20260502204604 20 315 3.2 9.7 0.00 0.03 0.00 34 1010.2
20260502204104 20 329 4.8 9.7 0.00 0.03 0.00 33 1010.3
20260502203605 20 322 4.8 9.7 0.00 0.03 0.00 34 1010.4
20260502203104 20 326 0.0 4.8 0.00 0.03 0.00 34 1010.6
20260502202104 20 321 0.0 4.8 0.00 0.03 0.00 34 1010.8
20260502201604 20 322 1.6 9.7 0.00 0.03 0.00 34 1010.8
20260502201104 21 340 3.2 12.9 0.00 0.03 0.00 34 1010.8
20260502200604 21 315 3.2 8.0 0.00 0.03 0.00 34 1010.8
20260502195606 21 330 0.0 8.0 0.00 0.03 0.00 35 1010.9
20260502195104 21 323 4.8 12.9 0.00 0.03 0.00 36 1010.9
20260502194604 21 322 0.0 11.3 0.00 0.03 0.00 38 1010.9
20260502194105 21 329 3.2 9.7 0.00 0.03 0.00 39 1010.9
20260502193604 20 325 4.8 9.7 0.00 0.03 0.00 39 1010.9
20260502193104 20 312 1.6 9.7 0.00 0.03 0.00 38 1011.2
20260502192604 20 324 4.8 14.5 0.00 0.03 0.00 38 1011.2
20260502192105 20 320 1.6 8.0 0.00 0.03 0.00 40 1011.4
20260502191604 20 321 1.6 9.7 0.00 0.03 0.00 40 1011.3
20260502190605 20 315 3.2 14.5 0.00 0.03 0.00 41 1011.5
20260502190104 20 322 1.6 9.7 0.00 0.03 0.00 41 1011.4
20260502185105 19 329 1.6 8.0 0.00 0.03 0.00 42 1011.4
20260502184104 19 344 1.6 4.8 0.00 0.03 0.00 43 1011.6
20260502183605 19 326 1.6 9.7 0.00 0.03 0.00 45 1011.7
20260502183104 18 319 3.2 4.8 0.00 0.03 0.00 45 1011.6
20260502182604 18 322 1.6 8.0 0.00 0.03 0.00 45 1011.7
20260502182104 18 322 3.2 8.0 0.00 0.03 0.00 45 1011.8
20260502181604 18 315 3.2 8.0 0.00 0.03 0.00 46 1011.8
20260502181104 18 66 0.0 4.8 0.00 0.03 0.00 47 1011.8
20260502180604 17 320 3.2 8.0 0.00 0.03 0.00 48 1011.8
20260502170105 16 311 3.2 9.7 0.00 0.03 0.00 53 1011.6
20260502164105 16 319 3.2 4.8 0.00 0.03 0.00 55 1011.5
20260502163604 16 310 0.0 4.8 0.00 0.03 0.00 56 1011.5
20260502163105 15 318 0.0 1.6 0.00 0.03 0.00 57 1011.5
20260502162105 15 319 0.0 3.2 0.00 0.03 0.00 57 1011.4
20260502161604 15 319 1.6 4.8 0.00 0.03 0.00 58 1011.5
20260502161104 15 318 1.6 4.8 0.00 0.03 0.00 60 1011.5
20260502160604 15 319 1.6 4.8 0.00 0.03 0.00 62 1011.5
20260502160104 14 313 1.6 8.0 0.00 0.03 0.00 64 1011.5
20260502152103 11 179 0.0 0.0 0.00 0.03 0.00 79 1011.5
20260502151604 11 179 0.0 0.0 0.00 0.03 0.00 81 1011.5
20260502151103 10 179 0.0 0.0 0.00 0.03 0.00 83 1011.5
20260502150602 10 179 0.0 0.0 0.00 0.03 0.00 84 1011.4
20260502140104 8 179 0.0 0.0 0.00 0.03 0.00 86 1011.3
20260502130603 8 179 0.0 0.0 0.00 0.03 0.00 84 1011.0
20260502130103 8 179 0.0 0.0 0.00 0.03 0.00 84 1011.0
20260502123103 8 179 0.0 0.0 0.00 0.03 0.00 84 1011.1
20260502122103 8 179 0.0 0.0 0.00 0.03 0.00 84 1011.1
20260502121104 8 179 0.0 0.0 0.00 0.03 0.00 84 1011.3
20260502120603 8 179 0.0 0.0 0.00 0.03 0.00 84 1011.3
20260502115603 8 179 0.0 0.0 0.00 0.03 0.00 84 1011.3
20260502114603 8 179 0.0 0.0 0.00 0.03 0.00 84 1011.2
20260502113603 9 179 0.0 0.0 0.00 0.03 0.00 84 1011.3
20260502113103 9 179 0.0 0.0 0.00 0.03 0.00 84 1011.3
20260502112603 9 179 0.0 0.0 0.00 0.03 0.00 84 1011.3
20260502112103 9 179 0.0 0.0 0.00 0.03 0.00 84 1011.4
20260502111603 9 179 0.0 0.0 0.00 0.03 0.00 84 1011.4
20260502111103 9 179 0.0 0.0 0.00 0.03 0.00 84 1011.4
20260502110603 9 179 0.0 0.0 0.00 0.03 0.00 84 1011.4
20260502110104 9 179 0.0 0.0 0.00 0.03 0.00 84 1011.4
20260502105603 9 179 0.0 0.0 0.00 0.03 0.00 84 1011.4
20260502104603 9 179 0.0 0.0 0.00 0.03 0.00 84 1011.5
20260502103604 9 179 0.0 0.0 0.00 0.03 0.00 84 1011.5
20260502103103 9 179 0.0 0.0 0.00 0.03 0.00 84 1011.5
20260502102603 9 179 0.0 0.0 0.00 0.03 0.00 84 1011.4
20260502102103 9 179 0.0 0.0 0.00 0.03 0.00 84 1011.5
20260502101603 9 179 0.0 0.0 0.00 0.03 0.00 84 1011.4
20260502101103 9 179 0.0 0.0 0.00 0.03 0.00 84 1011.4
20260502100603 10 179 0.0 0.0 0.00 0.03 0.00 83 1011.3
20260502080103 12 179 0.0 0.0 0.00 0.03 0.00 73 1011.8
20260502071103 13 269 0.0 0.0 0.00 0.03 0.00 67 1011.4
20260502065603 14 259 0.0 4.8 0.03 0.03 0.03 64 1010.9
20260502065103 14 305 0.0 1.6 0.03 0.03 0.03 65 1010.8
20260502064103 15 323 3.2 9.7 0.03 0.03 0.03 63 1010.5
20260502063603 15 321 0.0 4.8 0.00 0.00 0.00 60 1010.7
20260502063103 15 320 3.2 4.8 0.00 0.00 0.00 59 1010.9
20260502062603 15 234 0.0 4.8 0.00 0.00 0.00 59 1011.9
20260502062103 16 224 1.6 4.8 0.00 0.00 0.00 58 1012.7
20260502061604 16 254 1.6 9.7 0.00 0.00 0.00 59 1013.0
20260502061103 16 198 0.0 4.8 0.00 0.00 0.00 56 1012.8
20260502060603 16 190 0.0 1.6 0.00 0.00 0.00 56 1012.6
20260502055103 16 244 0.0 0.0 0.00 0.00 0.00 55 1012.5
20260502054103 16 272 0.0 0.0 0.00 0.00 0.00 57 1012.6
20260502053603 16 273 0.0 1.6 0.00 0.00 0.00 57 1012.5
20260502053103 16 277 0.0 0.0 0.00 0.00 0.00 57 1012.5
20260502052603 16 277 0.0 1.6 0.00 0.00 0.00 57 1011.9
20260502052103 16 327 0.0 0.0 0.00 0.00 0.00 57 1011.7
20260502051603 16 327 0.0 0.0 0.00 0.00 0.00 57 1011.5
20260502051103 16 327 0.0 0.0 0.00 0.00 0.00 57 1011.5
20260502050603 16 327 0.0 1.6 0.00 0.00 0.00 56 1011.4
20260502050104 17 327 0.0 0.0 0.00 0.00 0.00 56 1011.2
20260502045603 17 327 0.0 0.0 0.00 0.00 0.00 56 1011.1
20260502045104 17 327 0.0 0.0 0.00 0.00 0.00 56 1011.1
20260502044604 17 327 0.0 3.2 0.00 0.00 0.00 55 1011.0
20260502044103 17 327 0.0 4.8 0.00 0.00 0.00 55 1011.0
20260502043603 17 326 0.0 4.8 0.00 0.00 0.00 55 1011.1
20260502042603 17 325 0.0 4.8 0.00 0.00 0.00 54 1011.1
20260502042103 17 320 1.6 16.1 0.00 0.00 0.00 54 1011.1
20260502041603 17 322 0.0 3.2 0.00 0.00 0.00 54 1011.1
20260502041103 17 337 0.0 14.5 0.00 0.00 0.00 54 1011.0
20260502040604 17 332 3.2 12.9 0.00 0.00 0.00 53 1010.8
20260502040103 18 330 4.8 19.3 0.00 0.00 0.00 52 1010.8
20260502035604 18 328 3.2 12.9 0.00 0.00 0.00 52 1010.5
20260502035103 18 332 4.8 16.1 0.00 0.00 0.00 51 1010.4
20260502034103 18 319 0.0 4.8 0.00 0.00 0.00 44 1010.4
20260502033604 18 328 0.0 3.2 0.00 0.00 0.00 41 1010.4
20260502032603 18 321 3.2 14.5 0.00 0.00 0.00 37 1009.9
20260502031603 19 309 1.6 19.3 0.00 0.00 0.00 37 1009.8
20260502031103 19 331 3.2 19.3 0.00 0.00 0.00 37 1009.8
20260502030603 19 230 0.0 4.8 0.00 0.00 0.00 37 1009.8
20260502025103 20 317 1.6 22.5 0.00 0.00 0.00 42 1009.7
20260502024103 21 239 1.6 9.7 0.00 0.00 0.00 41 1009.9
20260502023103 21 318 3.2 14.5 0.00 0.00 0.00 37 1009.8
20260502022103 22 324 8.0 22.5 0.00 0.00 0.00 34 1009.7
20260502021103 22 332 0.0 0.0 0.00 0.00 0.00 22 1009.6
20260502020104 22 106 0.0 4.8 0.00 0.00 0.00 22 1009.6
20260502015103 23 222 0.0 4.8 0.00 0.00 0.00 22 1009.8
20260502014603 23 233 0.0 3.2 0.00 0.00 0.00 21 1009.7
20260502014103 23 227 1.6 9.7 0.00 0.00 0.00 21 1009.7
20260502013103 23 142 0.0 3.2 0.00 0.00 0.00 20 1009.9
20260502012103 24 141 6.4 12.9 0.00 0.00 0.00 20 1009.9
20260502011603 25 144 0.0 3.2 0.00 0.00 0.00 18 1009.9
20260502011104 25 126 0.0 1.6 0.00 0.00 0.00 18 1009.8
20260502005103 25 166 0.0 4.8 0.00 0.00 0.00 18 1009.7
20260502004603 25 197 1.6 8.0 0.00 0.00 0.00 18 1009.6
20260502003603 26 86 0.0 3.2 0.00 0.00 0.00 18 1009.8
20260502003103 26 62 1.6 8.0 0.00 0.00 0.00 18 1009.8
20260502002603 26 149 0.0 4.8 0.00 0.00 0.00 18 1010.0
20260502002103 26 109 0.0 9.7 0.00 0.00 0.00 18 1010.0
20260502001603 26 68 0.0 9.7 0.00 0.00 0.00 18 1009.9
20260502001103 26 65 0.0 1.6 0.00 0.00 0.00 18 1010.0
20260502000603 26 71 0.0 4.8 0.00 0.00 0.00 17 1010.0
20260501235603 26 233 0.0 11.3 0.00 0.00 0.00 18 1009.9
20260501235103 26 162 0.0 4.8 0.00 0.00 0.00 18 1010.1
20260501234603 26 187 0.0 3.2 0.00 0.00 0.00 18 1010.1
20260501234104 26 220 0.0 4.8 0.00 0.00 0.00 18 1010.1
20260501233603 26 113 0.0 1.6 0.00 0.00 0.00 17 1010.2
20260501232103 26 163 0.0 0.0 0.00 0.00 0.00 18 1010.5
20260501231103 26 93 1.6 4.8 0.00 0.00 0.00 17 1010.6